Change the Weather History Date:

Friday, April 11, 2014

  Actual Average Record
Temperature  
Mean Temperature 66 °F -  
Max Temperature 76 °F 67 °F 86 °F (2001)
Min Temperature 57 °F 46 °F 35 °F (1998)
Cooling Degree Days 1    
Growing Degree Days 16 (Base 50)    
Moisture  
Dew Point 53 °F    
Average Humidity 68    
Maximum Humidity 100    
Minimum Humidity 41    
Precipitation  
Precipitation 0.12 in - - ()
Sea Level Pressure  
Sea Level Pressure 30.06 in    
Wind  
Wind Speed 12 mph (SW)    
Max Wind Speed 18 mph    
Max Gust Speed 21 mph    
Visibility 10 miles    
Events Rain , Thunderstorm    
Averages and records for this station are not official NWS values.
T = Trace of Precipitation, MM = Missing Value Source: NWS Daily Summary

Daily Weather History Graph

Daily Weather History Graph

Search for Another Location

Airport or City:

Trip Planner

Search our weather history database for the weather conditions in past years. The results will help you decide how hot, cold, wet, or windy it might be!

Date:

Astronomy

Apr. 11, 2014 Rise Set
Actual Time 6:21 AM CDT 7:20 PM CDT
Civil Twilight 5:55 AM CDT 7:47 PM CDT
Nautical Twilight 5:23 AM CDT 8:18 PM CDT
Astronomical Twilight 4:51 AM CDT 8:51 PM CDT
Moon 4:06 PM CDT (4/11) 4:10 AM CDT (4/11)
Length of Visible Light 13h 52m
Length of Day
12h 59m
Waxing Gibbous, 87% of the Moon is Illuminated
Apr 11
Waxing Gibbous
Apr 15
Full
Apr 22
Last Quarter
Apr 29
New
May 6
First Quarter

Hourly Weather History & Observations

Time (CDT) Temp. Dew Point Humidity Pressure Visibility Wind Dir Wind Speed Gust Speed Precip Events Conditions
12:58 AM 66.0 °F 41.4 °F 41% 30.01 in 10.0 mi SSW 15.0 mph - N/A   Clear
1:58 AM 65.3 °F 41.9 °F 42% 30.01 in 10.0 mi SSW 12.7 mph - N/A   Partly Cloudy
2:58 AM 64.8 °F 42.4 °F 44% 30.01 in 10.0 mi SSW 12.7 mph - N/A   Clear
3:58 AM 64.6 °F 42.4 °F 44% 30.01 in 10.0 mi SSW 15.0 mph - N/A   Clear
4:58 AM 64.2 °F 43.5 °F 47% 30.01 in 10.0 mi SSW 18.4 mph - N/A   Clear
5:58 AM 63.3 °F 44.1 °F 49% 30.03 in 10.0 mi SSW 13.8 mph - N/A   Partly Cloudy
6:58 AM 62.2 °F 44.8 °F 53% 30.06 in 10.0 mi SSW 12.7 mph - N/A   Clear
7:58 AM 64.2 °F 46.4 °F 52% 30.09 in 10.0 mi SW 16.1 mph - N/A   Clear
8:58 AM 65.7 °F 47.8 °F 53% 30.09 in 10.0 mi SW 17.3 mph - N/A   Clear
9:58 AM 66.6 °F 48.7 °F 53% 30.10 in 10.0 mi WSW 17.3 mph - N/A   Partly Cloudy
10:58 AM 68.4 °F 50.7 °F 53% 30.11 in 10.0 mi WSW 13.8 mph - N/A   Scattered Clouds
11:58 AM 70.5 °F 51.8 °F 51% 30.10 in 10.0 mi WSW 11.5 mph - N/A   Partly Cloudy
12:58 PM 72.5 °F 52.3 °F 49% 30.08 in 10.0 mi SSW 10.4 mph - N/A   Scattered Clouds
1:58 PM 74.5 °F 54.3 °F 49% 30.06 in 10.0 mi WSW 8.1 mph - N/A   Clear
2:58 PM 74.3 °F 54.5 °F 50% 30.04 in 10.0 mi West 8.1 mph - N/A   Partly Cloudy
3:58 PM 75.0 °F 54.0 °F 48% 30.03 in 10.0 mi WSW 10.4 mph 20.7 mph N/A   Scattered Clouds
4:58 PM 72.7 °F 53.4 °F 51% 30.06 in 10.0 mi NNW 15.0 mph - N/A   Overcast
5:05 PM 68.0 °F 57.2 °F 68% 30.07 in 10.0 mi NNW 13.8 mph 20.7 mph N/A   Drizzle
5:39 PM 62.6 °F 62.6 °F 100% 30.05 in 6.0 mi Variable 6.9 mph - N/A Rain , Thunderstorm Light Thunderstorms and Rain
5:58 PM 63.9 °F 63.5 °F 99% 30.05 in 10.0 mi NW 3.5 mph - 0.11 in Rain , Thunderstorm Thunderstorms and Rain
6:10 PM 62.6 °F 62.6 °F 100% 30.05 in 10.0 mi Calm Calm - N/A Thunderstorm Light Drizzle
6:15 PM 62.6 °F 62.6 °F 100% 30.05 in 10.0 mi South 4.6 mph - N/A Thunderstorm Mostly Cloudy
6:58 PM 63.3 °F 63.1 °F 99% 30.03 in 10.0 mi South 8.1 mph - 0.01 in   Partly Cloudy
7:58 PM 62.8 °F 62.4 °F 99% 30.02 in 10.0 mi NNE 6.9 mph - N/A   Clear
8:58 PM 58.6 °F 58.6 °F 100% 30.06 in 10.0 mi NE 9.2 mph - N/A   Clear
9:58 PM 57.2 °F 57.2 °F 100% 30.10 in 10.0 mi NE 4.6 mph - N/A   Clear
10:58 PM 57.9 °F 57.9 °F 100% 30.11 in 10.0 mi SE 4.6 mph - N/A   Clear
11:58 PM 58.1 °F 58.1 °F 100% 30.11 in 10.0 mi SE 5.8 mph - N/A   Clear